National Weather Service Hourly Weather Roundup
NOAA NWS Hourly Roundups by Site
NOAA NWS Hourly Roundups by Site
Regional Weather Roundup for Sacramento, CA

To Select Another Site Choose from List

Select Site:  

000
ASUS46 KSTO 281915
RWRCA

NORTHERN AND CENTRAL CA REGIONAL WEATHER ROUNDUP
NATIONAL WEATHER SERVICE SACRAMENTO CA
1100 AM PST TUE JAN 28 2020

NOTE: FAIR INDICATES FEW OR NO CLOUDS BELOW 12,000 FEET WITH NO
SIGNIFICANT WEATHER AND/OR OBSTRUCTIONS TO VISIBILITY.

CAZ001-003-282000-
NORTHWEST AREA

CITY           SKY/WX    TMP DP  RH WIND       PRES   REMARKS
CRESCENT CITY  CLOUDY    50  50 100 SW10      30.29R FOG
UKIAH          MOSUNNY   58  45  62 VRB6      30.33R
$$

CAZ006-505>513-282000-
BAY AREA

CITY           SKY/WX    TMP DP  RH WIND       PRES   REMARKS
SANTA ROSA     CLOUDY    56  54  93 CALM      30.35R
SAN RAFAEL     N/A       MM  MM  MM MISG
NAPA           CLOUDY    55  52  89 S15       30.35R
CONCORD        PTSUNNY   59  51  75 S12       30.35S
OAKLAND CITY   N/A       54  MM  MM MISG
OAKLAND        CLOUDY    56  51  84 SE8       30.37F
SAN FRAN CITY  N/A       52  MM  94 MISG
SAN FRAN ARPT  LGT RAIN  56  51  84 S10       30.36S
LIVERMORE      PTSUNNY   57  50  77 SW9       30.36S
HAYWARD        CLOUDY    56  50  80 SE8       30.37S
SAN JOSE ARPT  PTSUNNY   58  48  69 SE8       30.38S
$$
CAZ034-037-514>518-282000-
CENTRAL COAST

CITY           SKY/WX    TMP DP  RH WIND       PRES   REMARKS
WATSONVILLE    CLOUDY    56  49  77 CALM      30.40S
SALINAS        PTSUNNY   55  49  80 CALM      30.39S
MONTEREY       CLOUDY    61  46  57 VRB3      30.39S
SAN LUIS OBISP SUNNY     62  44  51 VRB3      30.30S
SANTA MARIA    SUNNY     63  45  51 NE17      30.27F
$$
CAZ015-016-282000-
NORTHERN SACRAMENTO VALLEY

CITY           SKY/WX    TMP DP  RH WIND       PRES   REMARKS
REDDING        PTSUNNY   54  47  77 S12       30.30R
RED BLUFF      CLOUDY    53  47  79 S17       30.32R
OROVILLE       CLOUDY    57  44  62 SE18G25   30.34F
$$
CAZ016>018-282000-
SOUTHERN SACRAMENTO VALLEY

CITY           SKY/WX    TMP DP  RH WIND       PRES   REMARKS
AUBURN         CLOUDY    50  43  76 SE6       30.35F
BEALE AFB      CLOUDY    53  50  88 SE14      30.34F
LINCOLN        CLOUDY    52  50  93 SE6       30.36R
MARYSVILLE     CLOUDY    53  50  89 SE15      30.36R
SAC INTL ARPT  LGT RAIN  55  49  80 SE12      30.35R
MATHER AIRPORT NOT AVBL
DOWNTOWN SAC   N/A       55  MM  MM MISG
SAC EXEC ARPT  CLOUDY    55  48  77 SE5       30.37R
VACAVILLE      PTSUNNY   59  51  75 SW12      30.36R
TRAVIS AFB     PTSUNNY   58  51  79 S9        30.35R
$$
CAZ019>021-282000-
SAN JOAQUIN VALLEY

CITY           SKY/WX    TMP DP  RH WIND       PRES   REMARKS
STOCKTON       CLOUDY    58  48  69 S6        30.36S
MODESTO        MOSUNNY   56  47  71 CALM      30.37S
MERCED         CLOUDY    55  48  77 W5        30.37S
LEMOORE        CLOUDY    56  48  74 NW6       30.36F
FRESNO         CLOUDY    57  49  74 NW9       30.37S
HANFORD        MOSUNNY   56  49  77 VRB3      30.37F
PORTERVILLE    SUNNY     56  48  74 S5        30.37F
BAKERSFIELD    MOSUNNY   50  42  74 S9        30.37F
$$
CAZ011-012-071-282000-
NORTHERN MOUNTAINS

CITY           SKY/WX    TMP DP  RH WIND       PRES   REMARKS
YREKA          CLOUDY    48  34  58 W6        30.21R
MOUNT SHASTA   CLOUDY    41  35  79 VRB5      30.22R
ALTURAS        PTSUNNY   42  36  79 SW9       30.17S
$$
CAZ011-012-071-282000-
SIERRA NEVADA MTNS

CITY           SKY/WX    TMP DP  RH WIND       PRES   REMARKS
BLUE CANYON    LGT RAIN  35  33  92 S6        30.33S FOG     WCI  30
TAHOE VLY ARPT SUNNY     42  26  53 S10G28    30.26F
MAMMOTH LAKES  FAIR     N/A N/A N/A W13       30.28F
$$



 

View Past Reports for Sacramento, CA.

Products Courtesy of NOAA-NWS
NWS Information Parsing Script by Ken True at Saratoga Weather - Script by SE Lincoln Weather.

powered by Cumulus v1.9.3 (1059)
Ambient Weather VWS v14.00
Top Website Map Copyright © 2007 - 2020 Foresthillweather.com Never base important decisions on this or any weather information obtained from the Internet